GFSNIL_prec_cthk_000.txt.gz
RH
75 76 72 72 72 72 65 64 62 58 54 48 42 38 35 32 31 33 33 35 38 43
77 77 78 75 72 70 68 67 63 56 48 40 36 35 35 33 35 35 33 32 36 41
81 81 79 76 75 75 70 67 60 49 43 40 37 35 33 34 34 35 33 35 37 40
80 79 78 80 77 75 69 59 50 44 41 39 37 35 36 34 32 34 34 34 37 40
82 83 81 78 77 71 61 51 46 44 41 37 34 32 30 28 27 30 31 32 34 36
85 81 82 79 73 62 54 49 44 39 36 33 30 29 26 25 27 34 35 37 40 40
84 83 78 73 64 56 50 42 37 35 32 29 26 26 27 31 37 39 42 46 48 48
83 78 73 69 61 50 41 35 32 29 25 26 29 30 34 41 50 59 64 68 71 72
79 76 75 67 49 38 31 27 25 25 26 30 32 38 49 61 67 76 81 86 89 91
79 77 72 55 37 28 24 23 25 27 32 34 46 63 75 85 88 89 88 88 90 91
81 72 61 40 27 23 25 27 28 33 38 53 68 77 83 88 88 89 88 90 94 96
78 63 42 28 23 26 30 30 34 39 55 69 74 80 82 84 86 88 91 94 98 98
57 34 29 24 25 33 33 35 40 55 71 78 80 84 87 91 94 95 97 97 97 98
33 30 26 27 34 36 37 40 55 70 78 84 87 89 94 98 98 97 97 97 98 97

GFSNIL_prec_cthk_003.txt.gz
RH
74 76 75 74 79 83 79 79 75 72 71 72 70 66 61 53 47 42 40 38 36 36
77 79 79 82 83 82 82 79 78 77 75 71 68 63 54 46 44 42 40 38 37 36
79 81 83 86 87 85 82 83 82 77 75 69 61 52 46 45 44 41 39 37 36 35
81 83 86 86 86 85 87 83 80 75 69 61 53 48 46 43 42 42 40 38 37 33
80 83 88 90 90 89 87 81 77 72 66 58 53 48 44 40 37 37 36 34 34 35
82 89 93 92 91 86 81 80 75 67 58 50 44 39 37 37 36 37 36 37 41 42
90 93 92 91 86 85 85 78 68 55 45 38 35 34 34 34 35 39 42 46 48 47
93 92 93 90 88 86 83 71 56 38 31 32 33 32 34 37 39 42 45 50 56 61
93 93 91 90 88 86 72 54 31 30 31 32 34 35 38 40 46 56 63 68 74 81
92 90 89 90 85 68 47 31 29 30 34 36 39 42 44 54 67 77 82 83 86 87
90 89 87 75 51 33 30 27 30 36 40 42 45 47 61 76 81 83 84 85 86 86
87 81 65 37 29 28 26 30 36 40 44 46 53 68 78 83 85 85 86 88 93 96
77 64 35 29 27 26 32 37 38 40 49 62 72 77 85 89 89 90 93 96 96 96
58 33 29 27 28 32 37 37 41 49 65 78 79 83 90 94 96 97 96 97 98 98

GFSNIL_prec_cthk_006.txt.gz
RH
68 68 69 73 78 78 80 81 83 87 86 81 82 85 79 74 69 65 60 55 51 49
72 71 72 77 80 83 82 85 89 92 88 92 83 79 75 70 64 60 55 52 49 45
72 74 77 81 84 85 90 95 95 94 92 85 80 77 73 68 60 54 49 45 42 40
70 75 79 84 87 95 96 96 97 94 84 82 80 74 67 59 54 48 41 38 36 34
70 76 79 81 91 94 96 96 91 86 86 82 76 67 58 49 44 41 38 35 32 30
72 76 79 86 90 96 95 91 88 88 85 77 65 53 42 39 34 31 31 31 32 32
71 78 88 92 94 95 92 90 89 88 77 62 46 34 30 32 35 36 37 37 37 37
82 87 95 96 94 92 91 91 85 67 50 32 29 29 35 39 37 36 37 38 40 44
92 93 95 95 92 91 88 72 51 33 29 27 29 35 37 40 41 44 45 50 61 71
97 96 94 92 92 85 67 41 29 27 27 31 35 38 41 47 50 55 66 74 81 85
95 93 92 87 82 61 37 29 26 28 35 36 36 41 48 57 70 77 81 84 86 87
91 85 82 74 48 32 29 27 31 36 37 37 45 54 71 79 81 85 88 89 91 94
81 78 62 43 31 28 29 33 35 37 41 50 58 75 81 84 86 88 90 91 92 95
72 56 40 32 30 31 33 35 39 44 48 60 78 83 90 93 95 96 92 93 95 97

GFSNIL_prec_cthk_009.txt.gz
RH
72 72 73 74 72 71 74 77 82 88 92 92 89 92 94 96 86 80 77 71 67 61
65 65 68 70 70 72 74 79 85 90 93 92 95 97 90 86 82 76 69 63 60 57
63 65 69 72 75 76 82 87 91 97 97 97 94 91 87 84 77 71 66 59 54 51
63 66 70 75 77 83 93 97 95 97 95 93 91 90 86 80 72 65 56 50 46 43
63 63 66 74 82 86 91 90 94 94 93 91 90 88 81 72 61 50 44 40 37 32
57 65 71 73 77 83 87 91 90 88 88 87 81 70 58 46 39 34 29 28 29 29
64 71 72 75 81 85 90 87 86 85 79 65 54 43 35 30 30 31 33 34 37 38
72 73 76 79 85 89 88 89 87 77 62 45 32 28 30 35 36 37 36 35 37 39
82 86 88 93 93 95 92 88 75 54 33 28 29 33 36 38 37 38 41 42 46 53
92 97 96 95 93 89 81 62 40 29 27 29 33 37 39 39 43 47 56 66 70 74
93 93 91 89 83 70 51 37 29 27 30 34 38 39 41 49 57 70 76 79 81 82
88 87 85 77 60 47 37 29 29 31 35 37 37 44 51 63 77 80 82 84 87 87
88 86 73 55 46 37 32 32 32 33 36 43 45 51 63 82 88 88 88 89 90 91
87 66 52 46 39 33 32 32 32 36 42 45 52 62 85 93 94 93 90 90 92 96

GFSNIL_prec_cthk_015.txt.gz
RH
63 62 59 58 57 57 55 55 54 56 63 70 79 79 90 94 92 96 99 98 98 93
56 56 54 53 52 50 49 50 54 61 65 71 75 82 91 94 91 94 94 93 90 87
51 47 46 47 47 48 52 56 61 67 75 81 87 90 93 92 90 90 90 89 88 84
47 44 42 45 49 55 59 65 69 73 79 83 81 82 85 84 81 77 76 74 71 66
51 43 42 44 50 58 65 73 81 79 74 77 79 83 81 77 76 71 64 57 51 47
46 47 48 50 54 63 74 82 82 82 81 86 88 85 79 75 68 56 48 44 38 33
61 64 65 71 72 69 82 88 90 93 94 91 87 80 70 57 47 40 35 30 26 27
69 75 75 80 84 82 88 93 91 86 82 77 68 58 52 47 40 34 29 26 26 27
74 77 85 89 87 91 94 93 89 82 76 68 56 50 43 37 29 26 24 24 27 30
68 74 83 84 94 93 92 89 81 67 57 50 44 38 31 26 25 25 27 32 36 41
78 84 88 94 93 87 79 67 58 53 49 43 35 29 25 24 24 28 35 42 56 70
82 91 94 90 82 71 62 57 54 49 42 36 29 26 25 27 30 37 48 72 82 84
90 90 85 75 67 60 58 54 49 42 37 32 29 29 30 33 40 54 77 86 87 90
88 79 69 63 60 58 53 47 41 38 34 33 33 32 34 41 58 83 90 89 91 93

GFSNIL_prec_cthk_018.txt.gz
RH
61 61 59 53 47 45 46 44 39 35 33 38 45 53 62 71 76 83 89 86 92 98
65 60 55 54 51 48 47 48 45 48 47 47 53 59 69 77 87 87 90 97 93 96
57 59 60 57 53 49 56 58 60 63 68 65 70 71 76 84 85 86 86 90 93 90
52 51 50 47 45 47 51 55 62 72 72 74 80 72 72 77 80 81 86 84 79 73
62 54 47 43 46 50 51 55 65 74 81 84 83 83 86 87 89 86 81 76 70 61
48 48 52 52 56 57 64 70 77 86 88 94 97 95 92 88 83 77 69 61 54 50
52 49 53 55 61 69 78 83 87 91 92 93 92 87 79 74 65 57 50 46 42 38
54 52 56 63 69 78 86 88 91 91 90 86 81 76 69 60 54 50 42 35 30 25
59 63 65 73 81 86 95 98 96 93 84 79 68 60 58 55 47 39 32 26 23 23
71 75 81 86 89 92 92 88 80 74 67 61 58 57 52 46 38 31 26 25 27 32
74 81 84 90 92 88 81 74 68 63 60 58 54 52 44 37 31 28 28 31 39 49
78 86 89 85 78 72 67 63 62 60 57 54 48 42 36 33 29 29 32 42 59 72
84 86 82 75 69 66 62 60 56 50 44 41 41 39 36 35 33 35 43 64 82 88
88 86 81 70 63 54 45 40 42 40 40 45 46 43 40 38 39 45 62 86 93 95

GFSNIL_prec_cthk_024.txt.gz
RH
54 54 54 54 54 51 45 42 40 37 36 37 39 42 44 46 50 54 57 60 63 67
54 56 58 55 50 44 40 40 42 44 49 52 53 53 55 58 62 65 70 75 78 80
60 58 54 47 42 38 34 36 41 49 52 55 58 66 70 75 81 82 82 83 88 92
47 45 44 41 38 40 43 45 50 56 61 67 73 78 84 88 90 96 97 96 97 94
45 44 42 42 47 49 50 52 55 64 71 78 83 87 91 94 93 92 91 89 85 81
52 55 52 51 48 49 53 58 66 75 83 87 90 91 92 91 88 85 78 73 69 66
53 47 49 53 53 60 69 73 80 85 84 85 84 83 80 77 75 71 70 69 67 65
53 51 54 61 70 77 85 88 88 80 76 72 70 69 64 62 64 62 62 63 63 62
46 53 56 62 68 74 77 80 78 77 71 67 68 60 57 56 58 58 57 57 58 57
56 61 61 66 74 80 79 70 55 44 41 42 43 38 36 35 35 39 42 48 50 49
66 67 67 70 77 72 49 40 39 39 38 39 41 36 35 36 38 43 46 47 47 47
67 68 69 69 51 39 37 34 35 34 37 40 43 47 45 45 50 52 49 45 46 49
61 67 62 47 39 37 36 36 38 41 47 51 56 60 58 56 54 51 53 52 53 53
66 62 49 41 38 36 38 42 43 46 53 55 61 64 63 60 61 61 61 61 59 61

GFSNIL_prec_cthk_027.txt.gz
RH
56 57 59 60 58 52 44 41 43 46 45 44 42 48 50 52 52 53 56 58 62 65
59 57 56 56 54 51 47 46 48 44 47 48 53 50 55 59 65 70 68 73 76 81
57 54 53 53 52 52 51 48 45 47 47 50 52 57 61 67 76 81 87 88 89 90
53 55 58 55 58 55 52 46 46 43 45 51 56 64 70 78 83 86 92 95 97 97
53 57 59 53 48 50 50 50 49 53 60 67 73 78 83 85 87 87 89 92 92 89
58 59 54 51 50 53 55 58 68 74 77 80 85 84 81 79 83 80 76 77 76 76
58 55 54 49 51 62 65 72 81 85 88 86 80 74 69 69 59 58 61 65 67 68
52 53 52 53 57 60 67 71 76 82 79 64 52 51 42 38 37 36 38 43 47 57
50 54 52 53 59 61 67 74 75 54 48 51 50 47 39 36 34 34 35 39 41 47
55 53 56 59 62 67 71 56 49 48 51 50 47 45 38 37 39 42 44 49 53 53
53 56 57 62 66 68 52 49 48 47 46 46 50 50 45 49 53 56 60 61 62 63
56 58 58 63 62 54 50 48 48 48 49 48 51 55 52 52 55 61 64 65 64 62
61 62 65 65 55 52 50 52 51 48 50 50 50 56 60 64 68 69 70 69 68 67
63 65 67 59 51 53 57 54 52 51 50 54 66 70 73 77 75 74 75 75 74 72

GFSNIL_prec_cthk_030.txt.gz
RH
59 60 62 62 59 57 55 52 49 48 47 46 43 45 50 50 48 48 52 55 56 58
58 59 58 58 58 55 53 49 45 43 41 42 45 45 46 48 49 53 60 70 75 75
53 53 54 56 56 53 49 47 45 44 44 40 40 45 50 54 62 67 70 74 79 83
52 54 55 56 57 52 49 44 48 51 48 51 58 63 67 68 72 79 80 80 82 85
58 59 60 59 54 49 48 49 51 54 58 66 70 71 74 76 77 69 68 69 67 63
63 63 58 49 48 45 45 47 53 60 64 74 79 82 78 62 56 49 47 42 34 41
65 55 52 47 45 45 44 49 57 60 66 71 67 53 47 49 45 43 41 35 32 34
57 54 51 48 48 49 50 53 57 60 58 51 48 50 55 48 43 41 35 30 30 34
62 57 56 53 53 54 57 60 60 52 49 50 55 52 45 41 42 42 42 43 44 50
70 67 56 50 58 59 61 62 53 48 49 52 50 47 44 45 48 49 50 52 56 59
55 53 51 58 63 64 66 57 51 48 50 48 48 51 48 50 56 59 61 66 69 70
82 68 63 62 67 71 66 60 49 51 51 50 49 50 57 63 65 66 67 68 74 76
86 92 84 71 75 77 75 59 51 52 54 53 52 59 62 67 70 74 81 82 82 85
70 93 89 72 82 80 78 56 53 53 53 54 59 62 65 74 79 83 83 84 90 87

GFSNIL_prec_cthk_033.txt.gz
RH
58 58 57 56 53 52 55 50 47 50 50 49 45 42 42 42 38 37 39 42 46 55
57 56 54 52 54 55 57 59 57 51 46 42 41 40 40 41 44 46 50 54 58 61
56 53 53 57 57 61 64 62 54 47 43 45 46 46 51 55 56 58 61 65 71 74
55 55 60 57 54 54 51 47 47 50 51 50 54 56 61 67 68 70 74 72 60 57
56 53 51 51 52 52 46 48 51 54 55 58 60 64 67 72 75 69 53 52 56 55
47 46 45 45 50 48 46 49 48 56 60 61 62 62 61 55 49 48 52 54 54 51
41 43 41 42 44 46 37 44 50 58 66 61 52 49 44 48 49 50 48 46 44 40
43 38 39 46 51 47 40 44 54 63 65 62 50 46 50 52 50 45 43 42 43 43
55 65 69 67 68 66 60 67 60 63 70 54 46 50 53 52 45 45 47 48 49 51
66 66 66 86 95 92 87 80 70 67 74 51 53 57 55 48 46 50 53 55 55 55
58 65 75 98 95 91 83 84 82 77 62 54 60 57 53 52 53 55 60 66 69 69
49 62 88 98 97 96 93 85 76 81 54 57 56 53 53 52 54 61 70 78 81 83
47 56 92 97 93 87 80 75 87 53 56 56 54 55 56 55 60 70 77 84 86 91
57 67 90 97 91 88 78 82 67 49 53 53 56 58 57 56 66 78 82 86 91 96

GFSNIL_prec_cthk_036.txt.gz
RH
58 60 59 54 53 49 49 51 54 55 54 52 48 48 45 45 47 49 49 46 48 51
59 59 59 55 52 53 54 51 46 43 43 45 46 46 52 53 55 56 56 58 62 67
59 61 60 57 53 47 46 46 44 43 44 44 48 53 54 57 60 62 65 66 69 72
63 54 46 44 40 40 42 43 40 35 37 39 42 48 54 55 60 63 67 65 57 57
43 39 39 42 36 32 38 45 43 32 36 41 47 49 54 53 50 50 49 52 53 59
40 40 44 43 43 43 51 57 56 50 53 60 68 61 54 53 51 50 49 57 56 54
45 42 39 51 54 61 69 66 76 78 71 78 81 74 58 53 50 50 50 50 47 45
48 49 54 59 64 67 77 75 94 94 85 84 77 65 56 48 49 51 49 47 47 48
49 49 48 51 66 57 70 91 91 86 87 82 66 59 52 52 51 48 48 49 49 51
33 35 43 52 51 56 87 97 96 94 84 77 62 58 52 50 49 49 49 49 53 59
31 40 48 52 49 71 98 97 97 88 85 71 68 53 49 48 50 50 50 55 65 71
41 42 42 49 59 69 83 88 88 87 78 74 54 49 46 48 49 48 51 64 75 77
44 43 49 57 70 74 77 85 85 80 76 51 50 45 47 48 46 43 49 69 82 86
45 53 56 63 65 66 75 82 85 67 47 49 46 46 50 50 47 44 62 77 83 91

GFSNIL_prec_cthk_039.txt.gz
RH
58 57 57 55 53 49 45 45 44 43 40 37 39 38 37 40 44 46 50 52 59 61
55 56 55 52 42 38 37 37 39 40 37 35 35 38 39 38 44 47 51 53 59 65
53 48 44 39 35 37 39 41 44 42 38 39 37 40 43 47 52 57 58 54 57 59
48 41 39 38 38 35 35 42 48 52 48 52 53 50 54 63 63 61 54 49 51 54
40 37 39 42 45 43 46 50 57 56 55 72 69 75 72 76 73 64 55 52 53 52
40 44 48 49 49 52 52 51 52 59 57 68 82 83 85 76 70 59 51 48 47 46
47 51 47 42 41 39 43 52 57 60 64 83 85 88 79 70 58 53 52 50 48 48
39 36 33 36 43 46 47 49 46 70 80 89 93 87 75 64 57 55 49 47 49 48
28 28 28 31 34 36 39 47 54 86 85 95 94 82 75 61 54 49 48 48 48 47
29 32 34 34 33 39 49 58 65 83 90 90 84 80 65 55 50 48 49 49 47 46
31 32 33 32 38 45 55 64 67 72 78 80 80 69 53 49 46 46 48 47 44 46
33 37 36 36 47 49 56 59 63 68 73 77 61 48 48 44 44 47 46 44 48 64
41 42 41 45 56 56 61 67 72 77 73 48 48 48 46 46 47 46 43 45 55 78
44 47 47 55 66 73 70 77 77 71 50 46 48 48 49 50 49 47 47 48 64 83

GFSNIL_prec_cthk_042.txt.gz
RH
63 57 52 48 42 36 32 30 32 33 35 35 38 38 39 39 39 41 43 49 52 54
61 54 47 42 36 33 35 37 41 38 38 39 43 47 52 55 58 58 55 58 64 59
53 48 43 37 36 39 40 39 42 46 46 48 48 51 55 64 64 69 69 75 71 62
48 45 42 42 42 42 41 43 47 49 51 48 50 53 60 69 73 79 77 74 68 60
48 47 46 44 45 45 40 42 47 50 53 51 56 53 67 78 82 81 73 67 54 47
44 41 38 37 34 32 36 41 42 46 45 49 56 68 77 83 86 78 72 59 51 47
37 32 31 30 28 29 31 34 38 42 51 59 71 85 84 87 86 74 65 54 48 46
32 32 30 29 29 28 31 35 40 44 49 61 79 81 87 84 77 69 54 46 45 45
32 30 32 32 31 32 33 38 42 46 55 65 71 77 79 76 66 49 43 42 42 43
30 32 33 35 34 33 34 42 44 52 56 60 62 67 70 57 45 43 43 43 43 40
32 34 36 36 36 35 40 48 45 56 62 64 68 63 46 46 44 44 45 43 42 43
34 34 35 37 40 43 48 60 65 66 72 73 61 46 45 46 45 44 43 43 45 46
32 35 37 41 44 49 59 71 77 79 80 69 50 45 48 49 46 44 43 44 47 49
31 36 41 46 50 56 69 77 82 82 72 51 46 47 52 51 47 46 44 46 48 50

GFSNIL_prec_cthk_045.txt.gz
RH
70 67 61 55 49 41 37 37 38 39 38 41 43 43 40 37 40 42 50 53 52 55
68 61 54 50 44 41 40 40 42 40 42 43 43 39 39 44 51 51 54 55 61 63
63 57 52 47 45 45 45 43 43 40 39 41 45 48 48 52 51 58 66 71 68 65
58 54 51 48 45 43 40 39 35 36 42 44 45 49 55 56 61 70 74 73 69 67
51 47 45 39 33 31 30 29 30 32 38 43 50 58 59 63 69 77 78 75 68 65
47 42 37 35 34 31 28 27 28 31 38 44 49 49 58 76 76 77 78 75 68 53
42 39 38 36 32 30 29 28 27 31 35 38 44 53 74 78 77 74 74 67 47 41
41 39 37 34 31 30 30 29 30 31 36 42 51 60 65 67 65 65 57 42 41 40
40 38 33 32 33 32 32 32 33 36 41 43 53 62 61 63 58 44 42 40 40 40
37 34 34 34 33 33 34 34 38 44 51 58 61 68 67 51 41 43 43 42 39 38
33 32 33 33 34 35 35 38 45 55 65 71 76 76 59 43 41 45 45 41 39 40
31 31 31 32 32 34 36 44 53 64 73 82 81 67 46 41 45 47 43 40 40 44
30 28 32 30 31 35 42 52 61 70 80 83 72 48 44 43 48 45 42 42 44 47
28 31 30 29 34 39 48 58 69 75 83 73 50 45 43 49 49 46 45 44 46 49

GFSNIL_prec_cthk_048.txt.gz
RH
73 75 75 68 58 54 51 48 49 47 48 50 48 55 53 51 54 60 64 66 65 68
73 74 64 58 52 52 50 51 49 48 48 46 50 53 51 53 61 57 61 62 68 67
76 62 54 52 50 48 44 41 42 41 40 46 46 51 54 59 62 62 58 61 65 66
61 52 52 50 46 42 39 39 37 37 37 38 39 49 54 61 60 48 61 66 68 71
52 52 49 46 44 41 38 36 34 32 32 38 39 45 37 39 43 56 71 73 72 73
53 50 49 48 45 41 38 36 34 35 39 39 40 37 38 46 56 71 77 73 70 68
53 54 51 47 44 40 39 37 35 37 35 33 34 37 41 50 63 68 68 66 62 50
57 53 49 45 43 41 38 38 36 35 35 34 38 45 54 60 69 71 65 50 46 46
54 50 47 43 40 38 42 41 41 42 43 45 50 52 61 68 78 68 49 44 46 46
51 46 43 39 39 43 41 41 42 42 47 53 59 63 71 79 71 47 44 45 46 44
49 43 42 39 42 42 40 41 37 42 52 62 66 72 80 71 48 46 47 47 44 43
45 44 40 41 44 42 40 41 42 46 56 68 72 78 75 49 47 47 50 46 45 42
46 42 40 39 40 41 40 40 45 52 61 70 77 77 53 47 47 51 47 44 46 44
42 40 39 34 37 39 38 40 48 53 63 73 72 62 50 46 48 52 46 43 42 44

GFSNIL_prec_cthk_051.txt.gz
RH
65 66 69 75 71 62 56 54 54 55 52 56 54 53 57 51 61 66 67 66 67 74
66 72 79 70 63 57 54 54 52 50 50 46 45 49 53 51 57 67 67 67 70 73
70 73 69 63 58 55 54 52 50 47 42 40 41 46 47 49 60 66 64 69 64 64
70 64 58 57 56 57 55 52 48 43 42 42 41 45 47 46 53 50 47 46 58 65
64 59 56 55 56 56 55 51 47 43 43 41 44 44 45 45 45 41 46 57 69 72
59 57 55 56 58 58 56 50 46 47 44 45 40 36 31 35 39 41 49 60 68 71
58 56 56 58 59 60 54 52 51 48 47 37 35 37 36 37 44 52 60 68 75 67
57 58 60 63 62 57 55 53 55 53 46 47 42 42 45 49 58 64 72 78 69 53
58 60 60 60 59 56 54 57 54 45 42 45 49 46 53 56 65 74 80 70 55 50
61 60 56 55 54 53 56 54 48 43 42 43 55 52 62 65 72 78 67 55 53 52
63 57 54 54 53 54 55 53 45 42 41 41 55 58 65 70 74 67 54 54 52 50
59 56 57 54 52 50 50 51 42 42 44 49 56 60 68 74 61 57 54 51 54 48
57 53 56 53 44 43 46 45 42 43 49 53 61 63 73 63 51 54 51 54 53 47
56 58 53 50 47 42 44 42 39 42 51 57 63 65 63 59 52 54 51 55 51 50

GFSNIL_prec_cthk_057.txt.gz
RH
58 62 66 66 64 70 76 76 66 52 52 51 48 48 45 44 41 41 43 47 50 51
63 64 62 62 63 79 83 67 52 54 51 49 48 49 46 43 42 44 45 48 48 50
62 64 68 70 67 69 56 50 55 53 55 55 52 50 48 46 47 48 48 48 47 43
65 67 69 69 72 62 51 55 56 58 59 59 56 52 51 50 50 52 53 52 49 42
66 66 73 70 64 54 55 57 59 63 62 59 56 56 54 52 48 41 39 36 36 38
66 64 68 68 55 58 58 61 69 64 62 63 62 58 56 52 43 40 39 37 39 47
62 68 66 58 58 59 67 71 69 68 64 64 59 59 57 48 41 41 42 42 48 55
65 67 60 59 66 69 75 72 72 68 64 61 58 58 52 43 42 48 49 54 56 61
69 62 69 73 80 77 75 72 66 64 61 58 58 51 41 39 41 44 58 61 63 68
68 76 83 86 80 75 66 59 58 57 54 52 46 42 34 37 40 48 60 64 69 71
89 92 85 75 65 56 52 48 48 49 49 41 39 36 33 40 48 56 60 63 67 51
90 78 68 58 53 52 50 44 41 36 38 36 32 36 38 44 52 55 61 61 57 50
77 66 60 56 52 48 45 42 37 36 34 36 37 36 42 50 53 56 58 56 52 51
67 57 52 48 45 44 40 39 37 34 37 40 42 41 44 52 55 56 56 55 53 54

GFSNIL_prec_cthk_063.txt.gz
RH
51 51 54 56 60 73 74 84 84 78 72 66 64 60 57 52 44 46 51 57 60 58
56 59 60 66 78 74 90 96 97 82 71 56 55 58 55 49 54 63 65 63 59 58
66 67 71 75 78 83 90 96 89 65 67 63 54 58 58 68 69 67 63 58 56 52
70 72 75 75 88 96 87 79 68 61 62 59 61 67 77 73 62 57 58 56 52 45
77 80 77 86 83 77 76 66 64 64 62 61 74 79 65 58 59 58 58 55 47 38
88 79 81 77 74 66 61 65 65 65 70 77 69 66 64 56 56 55 52 47 40 36
85 81 72 60 60 64 69 66 67 77 76 71 65 59 57 54 50 48 44 41 36 33
69 61 56 58 67 69 67 77 83 78 70 62 56 52 49 45 43 43 42 36 32 32
60 59 63 67 69 70 86 84 76 68 60 53 49 43 38 38 39 41 34 32 32 35
62 67 67 69 78 89 79 73 66 60 52 45 39 36 32 35 37 36 34 32 36 42
71 72 77 85 90 79 71 66 59 47 38 37 37 29 29 34 37 39 35 34 40 47
75 83 93 86 83 74 62 51 42 36 36 36 23 28 32 35 39 40 36 38 45 51
84 95 87 80 68 55 44 39 35 28 26 24 25 29 33 38 44 41 40 44 47 54
90 84 73 57 48 41 37 29 23 24 24 27 28 28 34 43 46 42 45 48 51 56

GFSNIL_prec_cthk_066.txt.gz
RH
55 62 70 58 57 61 68 74 80 85 97 96 86 74 63 59 51 49 54 62 68 65
61 68 55 58 61 73 74 81 81 92 94 88 76 64 59 53 52 59 69 67 60 59
54 55 61 71 72 71 74 83 92 87 88 68 60 57 57 61 71 74 64 63 60 55
58 68 76 82 77 82 80 81 82 74 60 61 66 65 67 77 72 66 64 57 52 47
83 84 86 81 88 97 94 88 61 64 67 70 66 73 81 73 69 60 55 50 48 44
85 92 88 84 94 87 67 56 63 76 70 73 80 81 74 67 60 55 49 45 44 36
91 91 87 86 81 62 59 65 71 70 79 84 82 73 65 56 50 41 41 44 37 33
98 88 83 80 67 62 70 71 71 84 87 80 70 64 54 43 33 33 36 32 32 33
87 84 80 68 65 74 71 77 85 83 75 68 67 51 39 32 28 27 26 30 33 35
72 71 66 68 72 74 82 87 81 73 68 62 44 36 32 25 24 24 28 34 35 39
65 68 72 75 85 85 85 83 77 66 50 36 30 23 21 22 23 28 34 36 42 43
70 76 77 86 86 86 83 70 54 42 31 22 18 20 21 22 24 30 36 44 47 43
81 81 87 87 86 73 57 45 34 23 20 18 17 21 23 25 29 34 41 43 45 45
83 85 83 74 61 50 38 26 20 19 19 21 24 26 29 35 40 41 39 39 39 46

GFSNIL_prec_cthk_069.txt.gz
RH
67 80 78 59 67 58 59 68 75 79 81 85 87 92 76 62 56 56 54 61 67 65
72 71 65 78 66 64 72 78 79 84 86 92 90 72 60 55 60 61 66 69 63 60
65 64 72 70 74 79 87 90 93 87 91 97 79 58 63 66 65 68 72 65 63 60
58 62 71 81 86 91 92 95 97 95 90 72 61 69 70 68 72 74 69 64 59 49
66 72 84 89 92 92 95 96 94 81 68 69 69 72 72 75 75 69 64 57 45 37
88 92 93 95 98 90 93 88 83 70 72 69 74 75 76 76 68 63 53 40 35 31
94 95 93 94 97 87 83 83 79 70 68 77 80 80 75 67 64 49 31 26 24 26
93 90 96 97 92 80 81 79 65 71 79 80 75 73 67 60 41 26 19 19 22 25
78 99 92 76 70 79 73 68 79 81 82 75 74 63 49 30 21 18 17 19 23 26
68 67 58 60 71 64 72 79 79 78 74 67 55 39 24 20 18 17 17 22 26 29
61 60 63 72 69 81 83 78 75 70 58 50 33 22 19 18 18 18 20 23 29 37
64 64 70 77 78 77 74 70 61 54 43 28 21 19 19 20 21 22 25 30 35 40
68 74 74 76 74 68 62 57 49 37 27 24 23 23 25 29 34 36 38 35 34 35
69 77 74 70 62 61 53 44 34 27 24 23 23 24 28 32 37 36 36 40 36 31

GFSNIL_prec_cthk_072.txt.gz
RH
69 64 61 71 84 76 67 75 68 72 76 77 81 87 85 88 86 77 63 59 62 64
60 58 61 75 82 72 76 76 74 79 82 89 91 93 89 76 75 66 64 64 67 65
54 59 65 74 77 77 83 83 87 92 95 97 97 95 79 70 66 64 66 70 68 64
66 68 73 80 85 88 86 93 97 97 97 97 91 77 71 70 68 69 72 70 66 63
66 72 78 85 90 94 98 99 97 97 95 94 86 75 77 75 72 74 73 69 64 51
76 84 92 94 94 98 97 95 98 98 93 86 86 79 77 77 76 72 67 59 42 35
88 84 89 93 98 89 95 98 94 94 88 85 74 73 77 73 67 63 51 33 27 25
83 83 92 88 84 89 95 91 90 87 82 77 76 77 69 61 56 46 32 26 25 29
69 71 73 70 68 80 79 79 77 71 72 74 72 64 54 50 40 30 26 24 28 30
63 65 68 65 63 62 66 69 69 70 69 65 60 56 47 37 26 24 24 23 28 32
64 64 65 64 61 69 75 75 74 70 60 59 56 44 36 26 24 25 25 30 34 34
60 61 62 65 76 76 74 70 60 58 58 53 47 38 28 28 29 30 28 31 30 30
59 62 72 73 74 74 62 57 60 56 51 44 35 31 28 26 25 21 22 23 29 31
66 68 72 73 64 58 60 58 51 45 39 31 24 23 20 16 14 18 19 20 19 20

GFSNIL_prec_cthk_075.txt.gz
RH
84 84 77 62 71 80 82 87 87 77 73 80 76 81 82 86 86 89 85 77 63 59
80 79 69 64 64 71 80 89 86 80 83 86 86 86 91 97 94 86 80 74 67 63
71 65 66 64 69 79 88 94 91 87 89 87 92 97 97 95 87 85 85 78 67 69
68 66 71 74 76 81 90 98 94 94 95 98 98 97 97 93 90 91 85 76 70 72
72 73 74 74 77 89 98 99 98 98 94 95 97 96 95 94 91 89 83 76 74 68
73 68 71 80 86 88 90 98 96 97 98 98 97 95 94 92 87 83 75 71 66 57
63 68 80 84 83 80 85 83 96 97 94 97 94 89 91 90 84 71 63 58 51 43
72 79 84 88 84 72 78 78 79 69 77 80 69 70 72 69 63 54 50 45 41 35
79 83 83 81 73 71 73 74 70 76 64 67 70 69 61 51 44 46 41 35 32 32
79 82 80 74 72 71 70 70 64 64 69 71 67 58 51 47 43 38 34 30 29 31
77 72 73 69 67 66 65 65 68 71 69 63 56 54 50 44 38 32 33 32 32 34
68 68 66 66 66 63 68 69 73 67 61 58 59 56 47 40 35 35 32 30 27 26
58 60 59 58 64 66 69 66 62 61 61 58 52 49 44 38 36 29 25 23 24 23
53 55 61 65 65 65 61 63 64 61 54 48 45 42 38 34 30 28 24 20 21 24

GFSNIL_prec_cthk_078.txt.gz
RH
69 75 76 77 78 70 64 65 71 78 85 92 91 86 85 83 84 86 89 91 91 82
71 75 76 76 75 65 57 67 76 82 86 91 94 92 92 88 91 94 96 94 90 88
63 68 70 72 70 66 76 81 82 82 89 96 98 97 95 95 93 97 95 93 93 88
64 70 75 74 77 80 84 81 83 90 98 98 98 98 96 97 97 94 94 94 90 89
73 77 75 80 82 80 79 83 82 82 91 95 98 98 97 97 96 96 93 90 81 79
74 76 79 75 74 76 85 89 87 83 78 80 87 88 97 95 83 86 88 76 71 66
80 72 74 79 77 86 92 93 92 76 71 89 74 74 67 73 78 71 69 71 60 51
65 70 79 83 87 93 95 96 82 79 76 75 71 68 66 62 68 70 64 53 49 46
71 72 79 89 89 90 92 86 78 73 74 75 73 62 66 69 68 59 52 46 42 35
72 84 85 84 88 86 81 78 73 74 71 65 63 69 69 61 56 54 47 42 37 37
77 84 84 80 78 79 76 73 72 70 66 69 69 64 61 62 56 50 45 41 42 40
71 73 74 73 73 71 68 72 68 68 68 67 62 62 64 60 54 50 44 42 38 33
60 61 62 62 63 64 64 65 66 68 67 65 62 64 61 54 48 43 39 37 35 32
53 54 56 59 62 65 67 66 68 67 65 65 64 56 51 47 45 41 40 38 35 33

GFSNIL_prec_cthk_081.txt.gz
RH
65 65 66 71 75 80 84 78 70 63 64 74 81 83 86 90 97 90 94 91 89 90
58 64 61 61 78 85 84 74 65 70 79 83 80 85 91 98 97 97 96 94 95 96
62 62 68 61 72 83 81 79 74 82 82 78 79 93 98 98 98 97 96 98 97 95
56 63 70 64 76 78 80 85 83 79 79 78 79 85 79 88 95 97 95 92 96 96
56 69 77 82 79 81 81 86 79 77 84 81 83 77 71 74 75 78 74 71 77 72
64 75 82 96 92 86 86 86 82 86 92 89 86 72 79 83 72 76 71 69 69 72
61 66 90 80 78 83 85 85 88 86 92 92 82 77 76 75 72 79 72 67 70 71
70 76 83 74 80 82 89 87 90 87 89 89 80 71 75 69 76 67 67 70 71 69
61 67 69 76 81 83 86 90 89 86 81 82 76 70 83 70 64 69 74 75 70 59
59 64 71 75 77 88 90 85 81 81 78 71 78 75 79 67 75 79 76 68 57 50
56 62 63 68 75 78 81 82 81 76 73 77 69 69 69 75 76 71 63 58 54 52
56 61 66 70 71 72 73 72 70 70 70 69 68 70 74 72 66 62 63 60 56 53
49 55 58 57 60 61 61 66 69 69 68 69 74 74 71 68 67 66 63 56 50 48
45 48 50 53 58 60 64 66 70 71 74 76 73 72 70 68 64 59 56 53 50 49

GFSNIL_prec_cthk_084.txt.gz
RH
55 60 60 60 62 66 70 77 77 76 77 65 68 76 85 79 83 81 97 96 97 97
52 57 60 61 60 61 73 80 81 80 79 74 78 82 78 79 79 91 92 97 97 97
51 53 58 60 65 63 66 76 83 89 89 89 86 84 83 78 83 77 78 89 94 92
54 52 56 61 64 69 71 78 85 90 92 91 85 85 83 82 85 72 71 71 78 78
56 68 78 67 74 84 92 92 92 90 94 89 82 85 87 83 84 72 72 70 70 78
52 56 60 64 75 89 94 84 89 91 90 87 85 87 90 89 84 72 78 75 71 76
44 53 58 70 89 98 85 77 79 86 86 89 89 89 86 87 88 71 80 76 81 75
62 69 74 80 89 70 73 80 80 85 86 86 86 84 82 85 75 81 76 93 88 73
53 56 59 63 63 60 68 73 77 82 86 82 77 76 91 85 80 85 77 78 70 75
48 50 53 54 58 61 69 73 74 75 78 81 77 78 77 76 96 85 73 73 79 83
46 49 50 53 56 59 62 67 71 75 76 76 86 81 69 85 88 76 78 82 85 77
53 52 53 54 58 62 65 67 68 71 78 74 77 68 80 80 81 84 84 81 72 66
47 48 50 53 57 58 57 60 60 61 64 75 75 83 88 83 88 86 79 74 69 66
48 49 48 51 50 50 55 65 67 69 79 87 90 87 90 91 84 78 74 66 63 62

GFSNIL_prec_cthk_087.txt.gz
RH
43 46 49 51 53 54 56 61 66 70 77 81 78 75 70 69 77 80 87 82 79 91
44 45 51 51 51 53 59 61 69 78 79 77 81 79 77 79 81 82 75 79 85 72
53 53 53 54 57 60 63 66 67 75 82 83 84 89 91 88 90 88 87 78 96 69
59 61 63 60 60 65 75 79 81 83 86 93 97 97 91 86 83 84 85 83 82 73
58 58 59 61 69 76 75 76 88 94 94 97 98 96 96 90 88 87 87 89 87 75
58 59 59 58 59 63 70 89 98 98 93 92 93 94 93 90 87 89 83 81 85 84
51 49 52 58 69 78 91 93 74 75 78 81 88 92 92 85 86 86 83 84 87 80
35 41 57 70 73 77 83 87 79 69 80 78 82 85 86 86 81 79 79 91 87 74
44 53 58 60 63 71 69 66 71 71 71 74 75 79 85 83 83 78 88 98 79 82
49 53 54 54 57 60 58 67 64 64 64 69 78 87 84 82 80 90 95 95 86 88
52 49 46 52 57 57 58 57 60 65 70 75 87 85 87 84 96 90 91 82 85 94
51 52 57 59 60 59 60 60 63 65 67 75 85 88 89 95 86 83 91 95 94 97
53 53 54 53 53 58 58 58 59 63 63 70 75 82 80 81 92 95 95 96 98 95
53 51 50 51 53 55 56 59 58 64 68 71 74 76 92 96 99 98 97 97 92 87

GFSNIL_prec_cthk_090.txt.gz
RH
46 46 48 53 59 60 61 60 59 59 63 68 72 72 74 79 90 95 85 81 84 82
41 43 45 49 53 58 61 61 61 61 64 70 71 72 73 79 79 81 81 88 88 84
51 49 48 48 53 56 60 60 61 62 61 64 76 87 89 88 87 90 92 96 94 91
57 56 55 56 57 57 55 57 61 68 75 81 85 86 92 96 96 96 93 91 93 93
65 61 59 57 58 60 63 70 77 83 88 92 95 97 94 95 98 94 88 92 97 96
75 69 64 59 63 67 69 74 79 84 93 89 83 95 96 98 94 98 96 97 93 91
47 52 60 66 62 61 62 72 81 91 91 82 75 74 82 83 84 89 92 91 87 83
29 31 35 40 50 62 76 80 80 83 85 85 84 81 78 78 76 81 87 85 81 79
36 39 43 49 62 68 67 68 74 76 78 75 75 80 80 74 77 80 85 88 84 82
45 53 60 60 62 65 67 64 64 66 60 65 64 61 66 70 75 88 93 92 89 88
56 62 62 61 59 60 60 66 64 61 61 63 65 65 66 72 73 93 98 88 86 94
63 61 58 60 62 61 62 60 59 58 60 60 65 65 68 68 71 86 97 80 88 90
58 56 58 60 59 59 59 54 59 62 61 60 64 65 68 74 87 86 87 95 89 96
59 59 59 62 63 60 59 66 68 68 66 67 67 71 77 86 94 94 90 92 97 97

GFSNIL_prec_cthk_093.txt.gz
RH
54 56 57 58 60 59 59 66 66 71 71 72 72 73 79 79 77 77 78 84 88 95
47 50 50 53 55 58 61 63 58 59 60 64 65 67 71 72 70 76 77 75 80 91
47 45 46 48 53 55 58 59 60 60 60 63 65 67 71 71 75 78 79 85 86 88
58 59 57 54 54 53 56 59 62 63 65 67 70 74 78 79 81 86 94 96 95 93
60 62 61 57 56 57 61 64 63 64 66 69 74 76 82 87 91 94 95 96 99 96
62 69 72 70 66 61 65 66 66 67 69 76 86 94 95 89 82 85 91 96 94 95
49 53 56 69 73 73 70 66 65 72 75 78 84 90 88 77 83 82 77 81 80 86
36 36 36 41 47 51 56 61 67 74 83 86 87 85 86 86 83 80 77 75 77 75
39 37 36 38 40 45 54 62 69 74 76 74 75 75 79 74 73 77 76 73 69 73
51 47 46 48 57 62 67 68 67 68 70 65 67 69 67 68 68 72 70 71 73 78
57 58 59 58 61 68 70 65 62 62 67 68 67 62 64 66 68 69 67 72 75 80
52 57 60 62 66 69 65 63 63 63 63 62 57 60 60 61 62 61 62 64 68 72
48 52 58 60 63 61 63 65 67 66 64 62 65 66 66 67 72 71 77 77 86 91
58 61 63 65 65 66 68 71 70 68 68 71 72 76 78 80 82 87 89 91 93 94

GFSNIL_prec_cthk_096.txt.gz
RH
63 65 68 71 74 75 77 76 75 74 75 74 76 74 78 81 78 77 81 84 85 85
49 52 56 59 60 62 65 65 65 64 63 65 69 75 74 73 71 73 77 76 75 74
43 46 50 51 53 55 57 59 59 60 61 64 65 66 67 68 70 74 76 77 79 78
53 55 54 53 52 52 54 56 59 60 62 64 65 67 73 75 76 78 80 82 81 83
59 61 64 67 68 63 60 62 65 69 70 71 72 74 76 76 78 82 83 85 88 85
58 57 60 66 70 70 66 64 66 68 71 72 71 70 70 72 78 86 92 91 84 82
52 51 54 64 62 68 71 70 68 69 69 67 69 76 83 86 88 90 89 89 85 85
43 43 44 44 50 58 67 69 75 76 67 69 75 83 84 89 91 90 86 85 89 81
46 43 39 38 39 41 44 47 50 55 65 71 75 80 81 88 85 80 76 76 76 69
57 55 53 52 52 52 52 56 61 68 73 74 72 72 74 76 73 72 73 68 65 67
63 66 65 65 65 65 64 69 69 73 75 74 69 68 70 69 71 67 64 64 62 62
64 65 67 69 79 80 78 75 77 77 74 69 66 66 67 66 65 62 65 69 71 74
65 65 61 58 62 65 66 71 75 73 68 67 67 71 74 75 71 76 78 79 81 83
61 59 59 63 66 70 73 73 72 72 75 78 81 82 78 79 81 83 84 86 90 93

GFSNIL_prec_cthk_099.txt.gz
RH
69 83 89 92 91 93 94 93 93 95 93 88 87 82 77 75 77 78 78 73 67 70
54 60 60 64 70 74 79 77 77 80 79 78 76 72 73 71 72 75 76 75 76 77
44 48 52 53 56 59 65 66 66 68 68 68 67 66 64 64 70 73 76 78 76 76
50 50 51 51 52 53 56 60 61 62 61 61 62 63 63 63 66 71 75 75 80 82
53 58 60 62 63 66 67 63 61 62 61 60 60 63 66 68 70 74 76 78 82 84
48 57 61 62 63 67 71 71 69 68 66 66 68 70 72 71 70 74 77 80 83 82
49 51 56 57 57 59 69 69 71 71 67 68 70 73 73 70 71 75 82 86 90 92
50 52 53 53 52 51 52 62 70 74 78 79 83 80 69 72 76 81 86 88 93 95
51 52 49 48 48 49 52 54 57 60 62 63 60 57 69 77 82 82 87 88 87 84
48 52 58 59 60 59 58 59 56 56 59 63 67 70 77 82 84 80 80 79 78 81
57 60 61 63 63 65 67 68 72 73 75 77 79 81 86 89 85 82 78 76 78 76
63 62 66 67 69 71 74 79 80 84 89 88 83 82 82 81 78 76 76 77 81 81
68 66 70 74 73 68 70 70 69 70 71 72 78 82 82 79 77 79 85 88 91 87
67 69 74 77 71 70 66 67 73 77 82 85 85 83 83 87 90 92 92 85 83 84

GFSNIL_prec_cthk_102.txt.gz
RH
65 81 89 87 87 91 93 92 94 94 94 94 96 94 89 96 90 80 76 74 77 82
56 62 70 83 83 85 89 93 93 92 92 92 92 89 93 90 85 78 75 75 79 83
45 50 55 61 61 64 71 78 81 82 81 82 83 84 77 75 74 74 72 75 75 78
50 50 51 51 53 54 57 60 65 67 72 73 72 71 69 70 70 66 66 65 69 75
49 52 57 57 57 57 62 68 67 62 63 62 62 64 65 67 67 70 73 73 78 79
47 50 55 62 66 66 69 72 74 75 70 67 66 66 69 72 73 75 79 83 83 82
47 49 52 57 62 63 65 68 74 74 78 77 76 75 74 76 79 85 86 81 84 90
51 51 52 56 57 57 60 62 64 65 77 80 80 81 86 86 86 73 68 76 82 86
54 52 57 60 57 55 55 56 57 56 55 57 59 52 55 59 67 72 78 83 88 88
56 56 56 60 62 63 63 62 64 64 64 66 66 67 72 78 82 85 86 91 91 91
61 60 58 59 61 65 66 68 68 70 74 76 76 79 85 91 94 91 88 84 89 87
62 58 59 58 60 65 69 75 78 79 79 79 79 81 81 82 83 83 83 92 90 89
65 67 68 67 65 67 72 79 80 76 77 73 77 80 84 88 89 94 98 97 94 89
69 75 78 78 79 78 76 77 75 74 75 78 80 83 89 94 94 90 84 85 86 85

GFSNIL_prec_cthk_105.txt.gz
RH
64 79 87 87 89 94 96 98 99 99 99 98 95 93 94 96 95 92 93 94 85 83
56 66 80 88 90 95 95 98 98 98 98 95 95 95 97 95 92 91 93 87 85 84
53 53 61 71 76 81 85 88 94 96 94 94 95 96 94 93 90 89 84 84 82 79
49 55 54 55 60 64 72 77 80 85 88 86 85 86 89 88 82 78 80 76 75 74
46 51 56 59 59 59 60 60 66 68 69 70 70 72 73 70 69 74 72 72 74 74
46 47 52 57 63 64 65 67 68 69 67 67 68 68 66 66 69 74 79 81 79 81
47 46 49 54 61 67 65 64 68 73 77 76 78 75 74 77 80 83 86 89 90 91
49 50 49 53 57 58 62 66 68 67 67 64 81 82 84 87 92 93 86 78 72 72
50 52 54 53 55 58 59 59 58 57 61 62 58 59 73 74 71 69 73 75 83 83
54 56 57 59 60 59 60 58 61 63 66 69 70 71 75 77 82 86 89 91 92 89
57 61 65 66 63 61 61 66 68 72 77 77 77 77 79 83 87 89 86 83 84 83
63 64 66 67 67 70 71 72 76 78 78 81 79 81 84 82 86 87 93 94 90 87
67 69 72 74 74 78 79 79 78 80 86 90 89 89 87 87 91 91 95 91 90 98
72 74 80 81 81 84 85 85 87 92 93 92 93 90 91 94 92 89 92 93 92 82

GFSNIL_prec_cthk_108.txt.gz
RH
55 68 79 86 92 99 98 99 99 99 98 98 98 97 97 99 98 97 95 95 94 94
48 64 75 84 89 98 99 98 98 99 99 99 99 95 96 98 98 97 96 95 94 93
47 52 69 78 86 91 98 97 99 98 98 98 98 98 98 97 96 96 95 94 93 91
48 50 52 58 67 79 90 96 99 98 99 98 99 97 96 97 96 96 95 93 88 87
47 50 52 51 54 59 72 81 85 91 96 96 93 91 91 91 91 90 88 86 83 79
46 47 50 56 60 59 59 62 69 74 80 83 82 82 80 81 80 80 77 75 72 74
47 45 46 50 58 64 65 68 71 69 67 70 71 70 70 71 71 74 74 76 78 85
49 47 49 50 52 59 68 66 65 67 72 79 74 81 84 82 84 84 84 88 87 84
51 53 52 53 54 55 57 59 62 63 63 61 61 64 79 84 88 88 85 85 82 83
54 55 56 59 60 59 56 57 55 56 59 63 65 70 71 74 74 73 77 79 77 77
59 58 59 64 63 63 62 60 59 63 68 72 73 76 78 79 80 80 81 83 85 82
67 63 65 66 65 66 64 66 67 69 69 72 74 77 80 81 82 89 89 85 88 86
74 72 74 75 73 73 76 76 80 83 82 82 83 81 88 87 87 87 86 88 90 89
84 81 83 80 80 84 86 87 86 87 90 92 92 92 90 93 95 93 91 88 95 97

GFSNIL_prec_cthk_111.txt.gz
RH
43 51 62 77 83 88 95 97 99 96 96 97 94 96 96 95 93 95 96 96 96 93
43 51 63 77 84 90 96 98 98 98 97 97 98 97 99 97 97 97 98 98 97 96
43 51 61 74 84 89 96 98 96 98 96 98 98 97 98 98 97 98 99 98 98 96
43 47 53 65 72 83 92 97 97 98 97 99 97 99 99 99 96 97 99 98 96 96
43 45 47 51 58 70 82 93 97 98 98 97 99 98 98 98 97 98 97 96 96 95
44 44 46 51 53 56 66 74 86 91 95 97 98 98 97 98 93 93 97 96 93 94
44 44 46 49 54 61 60 61 66 73 85 90 91 94 94 92 92 93 91 89 87 82
47 47 47 49 52 58 64 68 72 70 68 73 79 84 85 81 79 76 74 74 77 78
53 51 50 50 52 54 56 60 66 66 70 73 78 79 80 77 77 78 79 79 83 82
61 60 56 52 52 57 57 55 56 57 60 62 62 62 65 67 71 78 78 78 77 78
63 64 64 60 58 58 58 59 58 57 56 57 60 65 70 72 71 73 76 77 76 79
71 68 66 68 63 61 62 65 63 60 62 64 68 72 73 76 77 78 80 79 77 77
86 81 76 73 74 70 68 70 71 71 72 76 76 77 81 83 86 86 88 90 88 83
91 92 90 84 81 79 78 78 79 81 80 81 81 83 87 91 91 91 92 92 93 97

GFSNIL_prec_cthk_114.txt.gz
RH
38 42 47 55 65 77 83 87 91 93 91 93 91 91 91 82 75 77 79 81 86 90
39 42 47 57 68 80 87 90 92 96 98 94 93 93 92 92 86 88 91 93 96 96
40 44 50 59 68 80 87 92 97 99 98 99 97 97 98 98 91 90 95 96 98 98
43 47 52 57 62 69 80 89 97 99 98 98 96 98 99 98 97 96 94 96 97 97
48 50 52 55 55 58 70 83 88 98 99 99 98 99 97 98 98 99 97 97 98 97
51 54 53 54 54 57 61 72 78 93 98 98 99 97 99 98 98 98 96 98 98 98
51 55 57 58 55 57 64 65 67 77 87 95 99 98 98 98 99 97 96 95 94 97
50 55 58 60 59 59 61 66 70 69 76 83 89 95 97 97 95 99 97 94 97 98
51 54 57 60 60 60 60 62 65 70 74 75 78 81 86 93 93 94 92 89 83 80
55 55 55 58 61 61 61 59 60 62 66 73 76 77 78 80 79 78 78 78 77 76
59 58 59 61 62 61 64 63 61 60 61 63 64 66 70 71 73 74 74 75 76 77
61 60 60 63 67 66 66 67 66 66 64 63 64 65 66 67 68 71 76 76 80 80
77 67 63 65 70 71 68 68 71 72 71 69 67 68 71 72 74 76 77 80 82 84
88 86 83 74 75 75 73 72 74 74 76 77 76 77 80 82 82 84 86 87 88 89

GFSNIL_prec_cthk_117.txt.gz
RH
45 36 40 44 50 62 72 85 87 91 91 95 95 95 94 85 61 55 56 59 61 62
49 38 41 46 53 64 74 86 91 93 95 91 88 89 88 91 80 63 55 58 64 72
46 40 44 50 56 68 77 88 91 92 95 93 90 87 88 88 92 85 67 66 70 79
42 40 45 51 57 63 70 79 86 90 95 97 97 98 97 96 95 95 89 80 80 88
40 40 47 54 57 59 63 67 80 83 90 99 99 98 98 97 97 98 94 91 90 91
39 41 49 55 58 57 61 67 73 77 87 96 98 98 98 99 96 98 99 96 94 95
40 43 50 55 58 56 58 66 74 75 81 93 98 99 98 99 98 99 99 98 98 95
42 45 52 56 58 58 58 63 69 74 77 81 93 98 98 96 99 99 98 99 97 97
46 48 54 57 58 59 58 61 64 68 74 82 80 86 98 99 99 98 97 97 96 97
49 51 56 58 60 61 60 60 63 67 70 72 77 83 84 92 98 94 98 99 98 96
52 52 57 58 59 62 63 63 62 63 65 67 70 74 80 88 92 95 91 89 86 82
55 56 60 61 61 62 65 67 66 65 65 66 66 67 68 71 72 73 74 74 74 75
63 61 62 66 66 65 66 69 68 69 68 68 68 68 69 70 70 71 71 73 76 81
76 74 70 68 68 68 68 71 73 72 71 75 74 73 73 74 76 78 78 81 83 85

GFSNIL_prec_cthk_120.txt.gz
RH
68 63 60 45 41 38 42 51 69 83 89 95 99 97 98 98 94 79 59 60 72 70
70 67 64 41 41 42 45 62 77 84 90 92 96 98 98 96 92 81 69 69 68 66
70 68 63 39 40 44 50 70 80 93 95 95 94 95 98 95 93 89 73 62 57 57
72 71 61 38 39 45 54 67 85 90 93 96 95 96 93 95 95 94 83 72 64 62
76 75 60 39 38 46 54 60 69 82 88 93 91 97 98 92 91 92 93 87 79 70
76 75 58 41 40 48 54 55 59 68 80 84 88 94 98 96 94 90 86 89 93 87
79 71 62 43 43 49 54 55 59 68 75 80 88 98 98 99 97 96 94 95 99 96
81 67 63 46 47 52 52 55 58 66 73 74 86 97 98 98 99 99 98 99 99 99
74 70 67 49 50 54 55 56 57 61 65 74 81 94 97 99 99 99 99 99 99 99
77 73 70 54 53 55 57 58 59 58 59 68 77 81 92 98 98 98 98 98 98 97
79 74 73 58 55 57 58 60 60 59 57 60 65 72 78 81 94 95 96 98 98 98
78 74 76 60 57 59 60 61 62 63 61 59 59 63 69 76 86 93 95 97 99 98
84 77 78 68 61 61 62 64 66 65 65 65 63 62 63 66 75 81 85 84 84 80
93 78 79 74 66 67 65 68 68 68 69 69 69 68 68 69 69 70 70 70 71 72

GFSNIL_prec_cthk_123.txt.gz
RH
58 66 72 71 68 61 49 35 36 42 54 71 82 95 98 99 99 98 96 94 91 73
59 68 73 75 67 65 52 37 37 44 58 78 82 95 98 98 99 99 98 95 94 78
58 66 75 76 71 67 53 40 41 50 66 81 86 92 98 99 98 99 98 97 92 78
56 64 75 78 74 69 50 43 45 54 73 86 90 91 97 98 99 98 98 95 87 74
60 65 72 76 76 68 49 43 50 56 67 83 82 90 95 96 98 98 97 90 91 76
60 66 73 77 77 65 49 46 52 55 58 65 80 82 95 93 94 98 95 93 95 93
62 71 78 80 75 65 49 48 54 55 56 60 71 77 79 89 94 97 95 96 98 95
63 72 80 81 73 64 51 50 53 54 55 61 70 74 75 85 93 99 98 98 99 99
68 75 81 82 71 65 56 52 53 54 57 60 66 73 76 90 97 95 98 98 99 98
72 81 87 81 75 70 59 54 54 55 58 58 60 68 75 92 97 98 99 99 99 99
78 89 91 81 77 74 63 56 56 58 58 57 58 65 73 80 94 98 98 99 99 98
87 97 87 81 78 78 70 60 59 59 59 59 57 59 68 75 79 91 97 97 98 98
94 98 86 80 84 82 74 65 62 61 62 62 62 60 63 66 72 79 90 93 96 97
94 97 83 87 87 82 76 69 65 63 64 64 65 64 62 62 65 71 74 83 85 90

GFSNIL_prec_cthk_126.txt.gz
RH
39 45 48 56 58 65 65 68 63 57 51 46 48 56 69 86 93 99 99 96 95 94
43 49 55 59 61 64 64 68 62 57 47 45 49 59 73 84 95 98 98 98 97 93
46 49 57 60 64 66 66 70 64 58 44 45 56 67 81 88 98 99 98 99 96 96
44 50 56 61 65 67 68 71 66 59 45 49 60 73 85 91 94 97 98 99 98 96
38 51 57 58 64 68 73 72 68 60 45 51 60 74 90 95 94 95 96 98 99 97
39 45 55 60 64 68 73 79 72 61 47 52 59 62 72 87 87 96 95 98 98 99
47 44 53 61 66 70 74 80 71 62 48 51 58 59 65 75 81 80 87 96 98 98
55 50 49 60 66 70 74 78 70 66 57 55 56 58 62 72 77 78 77 85 97 99
57 59 54 62 69 71 74 79 72 66 56 56 56 57 64 67 75 77 81 91 92 99
58 65 60 63 70 74 75 76 72 68 58 55 57 63 65 69 74 81 94 97 99 98
62 72 67 71 74 74 77 80 77 72 61 57 60 62 63 66 75 80 94 99 98 99
61 77 70 77 75 76 86 84 78 75 64 59 59 59 62 61 68 75 87 97 98 99
57 79 77 84 90 79 92 85 82 78 69 61 62 61 60 63 66 69 74 93 97 98
60 77 90 87 89 87 91 87 85 81 73 65 65 64 62 64 64 63 68 77 88 95

GFSNIL_prec_cthk_129.txt.gz
RH
35 43 41 44 49 50 48 55 58 66 70 68 63 54 46 47 52 65 82 95 99 98
38 41 45 47 54 55 58 59 64 70 73 67 58 56 46 49 58 75 86 92 95 98
35 38 46 51 58 58 60 65 67 70 71 67 60 55 48 52 65 82 90 96 99 99
34 38 42 54 59 62 63 65 69 74 71 66 61 54 47 54 67 86 91 96 99 99
37 37 44 49 59 65 67 70 71 71 77 68 62 53 50 56 65 81 87 91 97 98
36 44 45 46 57 63 72 68 71 76 77 73 66 55 53 58 63 68 82 85 92 98
37 42 54 50 50 62 74 70 68 71 80 79 69 58 55 58 61 64 73 76 78 90
36 42 54 54 46 58 69 78 72 74 82 82 71 60 58 59 64 66 73 73 74 74
34 44 48 61 58 56 73 81 73 75 80 84 77 65 58 59 62 67 70 73 75 76
34 41 46 58 67 57 67 75 75 72 83 84 80 71 62 60 65 68 68 72 75 82
36 39 45 63 76 65 66 74 72 72 84 82 79 73 61 61 63 64 69 76 85 95
39 42 45 61 77 73 74 84 72 72 86 83 82 75 66 63 63 64 66 75 85 98
42 43 45 54 69 77 78 82 70 78 85 85 84 77 68 62 63 65 66 69 81 98
45 48 45 52 64 77 81 93 76 82 89 84 84 77 69 63 63 66 65 64 72 89